TimeWET,TemperatureF,Dew PointF,Humidity,Sea Level PressureIn,VisibilityMPH,Wind Direction,Wind SpeedMPH,Gust SpeedMPH,PrecipitationIn,Events,Conditions,WindDirDegrees,DateUTC
12:00 AM,50.0,44.6,82,29.98,5.6,East,5.8,-,N/A,,Unknown,80,2013-02-26 00:00:00
12:30 AM,50.0,42.8,76,29.98,5.6,East,9.2,-,N/A,,Unknown,90,2013-02-26 00:30:00
1:00 AM,51.8,42.8,71,29.95,-9999.0,East,9.2,-,N/A,,Clear,90,2013-02-26 01:00:00
1:30 AM,50.0,42.8,76,29.95,5.6,East,11.5,-,N/A,,Unknown,90,2013-02-26 01:30:00
2:00 AM,48.2,42.8,82,29.95,-9999.0,East,6.9,-,N/A,,Clear,80,2013-02-26 02:00:00
2:30 AM,48.2,42.8,82,29.95,-9999.0,East,6.9,-,N/A,,Clear,90,2013-02-26 02:30:00
3:00 AM,47,43,81,29.96,6,East,6.9,,,,,100,2013-02-26 03:00:00
3:00 AM,48.2,42.8,82,29.92,-9999.0,East,6.9,-,N/A,,Clear,100,2013-02-26 03:00:00
3:30 AM,46.4,42.8,87,29.92,5.6,East,6.9,-,N/A,,Unknown,100,2013-02-26 03:30:00
4:00 AM,48.2,44.6,87,29.92,5.6,ESE,6.9,-,N/A,,Unknown,110,2013-02-26 04:00:00
4:30 AM,46.4,42.8,87,29.92,5.6,East,6.9,-,N/A,,Unknown,100,2013-02-26 04:30:00
5:00 AM,44.6,42.8,93,29.89,5.6,ENE,6.9,-,N/A,,Unknown,60,2013-02-26 05:00:00
5:30 AM,46.4,42.8,87,29.89,5.6,ENE,5.8,-,N/A,,Unknown,60,2013-02-26 05:30:00
6:00 AM,44,41,87,29.92,6,East,6.9,,,,Clear,90,2013-02-26 06:00:00
6:00 AM,44.6,41.0,87,29.89,5.6,East,6.9,-,N/A,,Unknown,90,2013-02-26 06:00:00
6:30 AM,44.6,41.0,87,29.89,-9999.0,ESE,6.9,-,N/A,,Clear,110,2013-02-26 06:30:00
7:00 AM,44.6,41.0,87,29.89,5.6,NE,4.6,-,N/A,,Unknown,50,2013-02-26 07:00:00
7:30 AM,44.6,41.0,87,29.92,5.0,ESE,2.3,-,N/A,,Unknown,110,2013-02-26 07:30:00
8:00 AM,50.0,42.8,76,29.89,5.0,East,3.5,-,N/A,,Unknown,80,2013-02-26 08:00:00
8:30 AM,53.6,42.8,67,29.92,4.3,East,3.5,-,N/A,,Unknown,90,2013-02-26 08:30:00
9:00 AM,58,44,49,29.91,4,East,2.3,,,,Clear,80,2013-02-26 09:00:00
9:00 AM,57.2,44.6,63,29.92,3.7,Variable,2.3,-,N/A,,Unknown,0,2013-02-26 09:00:00
9:30 AM,60.8,42.8,52,29.92,4.3,East,5.8,-,N/A,,Unknown,90,2013-02-26 09:30:00
10:00 AM,64.4,42.8,45,29.89,5.0,East,4.6,-,N/A,,Unknown,90,2013-02-26 10:00:00
10:30 AM,66.2,42.8,43,29.89,5.0,ENE,5.8,-,N/A,,Unknown,60,2013-02-26 10:30:00
11:00 AM,68.0,41.0,37,29.89,5.6,ENE,6.9,-,N/A,,Unknown,60,2013-02-26 11:00:00
11:30 AM,69.8,42.8,38,29.89,5.6,NE,5.8,-,N/A,,Unknown,50,2013-02-26 11:30:00
12:00 PM,74,40,18,29.81,6,NE,3.5,,,,Clear,40,2013-02-26 12:00:00
12:00 PM,73.4,41.0,31,29.86,-9999.0,NE,3.5,-,N/A,,Clear,50,2013-02-26 12:00:00
12:30 PM,73.4,39.2,29,29.86,-9999.0,NE,5.8,-,N/A,,Clear,50,2013-02-26 12:30:00
1:00 PM,75.2,37.4,25,29.83,-9999.0,NE,5.8,-,N/A,,Clear,50,2013-02-26 13:00:00
1:30 PM,78.8,35.6,21,29.83,-9999.0,North,4.6,-,N/A,,Clear,350,2013-02-26 13:30:00
2:00 PM,78.8,39.2,24,29.80,6.2,Variable,2.3,-,N/A,,Mostly Cloudy,0,2013-02-26 14:00:00
2:30 PM,80.6,35.6,20,29.80,6.2,Variable,3.5,-,N/A,,Mostly Cloudy,0,2013-02-26 14:30:00
3:00 PM,80,39,14,29.73,6,West,3.5,,,,Partly Cloudy,270,2013-02-26 15:00:00
3:00 PM,80.6,39.2,23,29.80,6.2,NW,3.5,-,N/A,,Mostly Cloudy,310,2013-02-26 15:00:00
3:30 PM,80.6,39.2,23,29.80,6.2,NNW,4.6,-,N/A,,Mostly Cloudy,340,2013-02-26 15:30:00
4:00 PM,78.8,37.4,23,29.80,6.2,WNW,3.5,-,N/A,,Mostly Cloudy,300,2013-02-26 16:00:00
4:30 PM,78.8,35.6,21,29.80,6.2,Variable,2.3,-,N/A,,Mostly Cloudy,0,2013-02-26 16:30:00
5:00 PM,75.2,37.4,25,29.80,6.2,West,5.8,-,N/A,,Mostly Cloudy,280,2013-02-26 17:00:00
5:30 PM,75.2,30.2,19,29.80,6.2,WNW,5.8,-,N/A,,Mostly Cloudy,300,2013-02-26 17:30:00
6:00 PM,73,29,11,29.75,6,North,4.6,,,,Partly Cloudy,0,2013-02-26 18:00:00
6:00 PM,73.4,30.2,20,29.80,6.2,North,5.8,-,N/A,,Mostly Cloudy,10,2013-02-26 18:00:00
6:30 PM,71.6,30.2,22,29.80,5.0,North,4.6,-,N/A,,Mostly Cloudy,360,2013-02-26 18:30:00
7:00 PM,69.8,28.4,21,29.80,5.0,NNE,4.6,-,N/A,,Mostly Cloudy,30,2013-02-26 19:00:00
7:30 PM,68.0,28.4,23,29.80,5.0,NNE,4.6,-,N/A,,Mostly Cloudy,30,2013-02-26 19:30:00
8:00 PM,64.4,30.2,28,29.83,5.6,ENE,4.6,-,N/A,,Scattered Clouds,60,2013-02-26 20:00:00
8:30 PM,64.4,28.4,26,29.83,5.0,Calm,Calm,-,N/A,,Scattered Clouds,0,2013-02-26 20:30:00
9:00 PM,64,36,24,29.82,6,North,2.3,,,,Partly Cloudy,10,2013-02-26 21:00:00
9:00 PM,64.4,35.6,34,29.83,5.6,North,2.3,-,N/A,,Scattered Clouds,10,2013-02-26 21:00:00
9:30 PM,62.6,39.2,42,29.83,5.6,Variable,2.3,-,N/A,,Scattered Clouds,0,2013-02-26 21:30:00
10:00 PM,60.8,39.2,45,29.83,5.6,ESE,2.3,-,N/A,,Scattered Clouds,110,2013-02-26 22:00:00
10:30 PM,60.8,39.2,45,29.83,5.0,Calm,Calm,-,N/A,,Scattered Clouds,0,2013-02-26 22:30:00
11:00 PM,57.2,41.0,55,29.86,5.6,WSW,6.9,-,N/A,,Scattered Clouds,240,2013-02-26 23:00:00
11:30 PM,53.6,41.0,62,29.86,6.2,WSW,4.6,-,N/A,,Scattered Clouds,240,2013-02-26 23:30:00